Location: *
(37.4917°N, 71.5558°E)
Time: 08:55:29
(UTC+00:00)

SL-8 Rocket - Pass Details

Date: 09 April 2020
Orbit: 957 x 991 km, 82.9° (Epoch: 03 June)

Event Time Altitude Azimuth Distance (km) Brightness Sun altitude
Rises 15:55:32 0° 353° (N) 3,708 7.6 -25.0°
Reaches altitude 10° 15:58:03 10° 353° (N) 2,758 6.8 -25.4°
Maximum altitude 16:04:25 89° 269° (W) 996 3.9 -26.4°
Enters shadow 16:05:56 55° 176° (S) 1,174 4.1 -26.7°
